Dewpoint
53 54 55 55 55 55 54 55 56 56 55 53 52 51 51 51 51 52 53 53 52 52 52 54 53 52 49 36 36 41 44 43 42 42 40 39 37 36 28 31 30 28 29 31 31 32 29
55 55 56 56 56 56 56 55 54 53 52 51 51 50 49 51 51 51 51 52 52 53 53 52 52 51 43 30 39 41 40 40 41 40 41 41 39 41 37 33 30 32 31 31 31 31 29
56 56 57 55 53 53 52 52 52 50 51 50 49 48 49 51 51 50 51 52 52 53 53 52 52 49 36 36 41 41 39 39 40 41 38 42 42 39 39 32 34 31 27 26 29 30 27
57 56 55 54 53 51 51 50 49 50 49 48 47 47 48 48 50 51 52 52 53 53 53 53 53 47 30 39 42 37 39 39 41 40 41 42 42 42 38 35 32 26 24 16 22 27 28
55 54 54 53 52 51 50 49 49 48 48 48 48 48 49 48 49 51 52 53 50 50 53 53 47 42 31 40 36 38 39 38 40 40 41 40 40 36 31 24 22 20 14 18 21 27 27
54 53 52 51 51 50 49 49 47 47 47 47 48 48 49 49 50 51 52 50 48 45 48 50 43 30 32 33 37 37 40 40 39 38 35 34 34 26 24 17 2 13 17 22 22 24 26
53 52 50 49 49 48 47 47 48 48 47 47 47 47 48 49 50 51 47 36 29 20 35 35 33 33 34 36 39 37 40 39 38 34 27 31 27 22 23 26 26 24 25 24 24 25 23
52 49 48 48 48 47 46 47 48 48 48 47 46 47 48 49 50 47 45 42 43 40 30 38 36 36 37 38 35 37 40 32 30 27 28 20 26 28 28 27 27 26 23 18 23 23 27
50 48 47 47 46 46 47 47 48 48 47 47 46 47 48 50 50 46 44 44 46 45 36 35 33 36 37 39 34 35 38 36 29 26 28 21 25 28 27 25 25 23 20 25 24 26 27
48 46 47 46 46 46 47 47 48 47 47 47 46 45 49 50 38 45 43 45 46 45 20 21 32 37 38 38 34 38 40 35 33 28 29 27 29 26 26 25 25 14 28 27 25 26 19
47 45 46 45 46 46 46 47 47 47 47 46 45 45 47 48 43 43 43 46 46 43 -4 16 27 39 37 33 32 36 40 37 31 30 26 18 27 27 24 26 27 15 28 29 28 28 26
48 46 45 45 46 46 47 47 47 46 45 45 44 45 48 45 42 44 47 47 43 21 -3 19 27 25 24 33 31 36 37 38 36 32 32 28 33 30 25 30 29 30 27 27 29 27 22
49 46 46 45 46 46 47 47 46 45 44 43 44 46 47 47 40 46 47 42 18 6 17 19 20 23 23 22 22 28 25 24 23 17 15 23 29 31 30 25 28 25 21 3 7 18 16
51 48 47 46 46 46 47 46 45 44 43 43 45 46 46 44 47 47 43 24 3 19 23 27 23 21 18 20 19 22 20 19 28 25 23 21 6 26 30 25 22 23 25 9 1 -1 11
52 49 47 46 45 46 47 45 44 42 42 44 46 41 44 45 47 45 31 14 17 19 24 21 19 9 12 19 18 15 14 21 26 28 16 18 17 26 28 29 26 24 25 24 19 20 20
52 50 48 47 46 46 46 44 42 42 42 44 41 41 41 46 46 40 24 18 20 24 27 26 13 18 12 15 14 15 13 22 28 30 29 23 19 23 28 28 30 25 30 21 23 13 12
53 51 49 47 46 47 44 42 40 42 42 45 38 30 41 44 44 31 22 23 25 27 30 26 24 21 20 20 20 17 14 23 25 27 28 27 23 17 25 23 22 26 24 26 22 20 14
54 51 49 48 47 47 42 40 40 41 43 41 37 4 39 42 29 29 27 27 30 29 30 28 27 26 25 24 23 20 18 24 26 26 23 25 24 22 19 21 24 28 24 25 19 16 20
54 52 50 48 48 46 41 39 40 41 43 39 30 29 36 36 20 27 28 28 29 27 28 28 27 28 27 26 22 24 22 27 27 26 24 25 19 17 10 22 24 22 21 20 21 21 19
55 52 50 49 49 46 41 39 39 41 41 40 30 7 30 32 31 26 26 25 25 29 29 29 28 29 28 26 25 23 24 29 29 27 30 28 24 20 15 14 23 22 22 24 23 21 19
55 52 50 50 49 46 41 40 39 41 41 39 30 27 30 12 27 28 26 27 25 24 28 26 29 28 27 24 25 23 28 27 27 28 28 27 24 25 24 25 25 24 23 22 21 22 21
55 53 51 50 49 45 41 40 39 41 42 36 29 25 32 26 26 23 24 24 25 27 27 26 28 28 26 25 26 24 22 23 25 27 26 26 24 26 24 24 22 20 20 21 20 20 20
55 53 51 50 49 45 42 41 39 40 40 34 35 34 19 14 21 20 20 25 28 26 29 31 28 23 24 24 21 20 21 21 22 25 25 24 24 21 17 21 15 6 13 15 16 21 21
55 53 52 51 48 45 43 41 40 40 39 35 36 32 22 -4 19 17 21 26 27 27 24 27 20 18 20 23 22 21 20 20 19 19 21 21 22 21 18 17 7 6 16 18 22 23 23
55 53 52 50 48 45 44 41 41 40 42 37 37 31 25 8 20 19 18 19 20 21 20 19 20 20 23 22 19 14 11 11 13 18 17 20 20 18 16 16 15 13 20 20 20 21 24
55 53 52 50 47 45 44 42 41 41 43 39 39 37 29 16 13 24 21 21 20 21 20 20 22 24 25 22 20 12 4 9 8 18 19 18 21 17 19 15 11 12 19 23 23 19 30
55 52 51 49 46 45 44 43 43 41 43 40 39 39 32 22 28 28 22 22 23 23 21 22 22 19 21 17 15 13 12 17 12 15 20 18 18 18 17 17 18 21 22 24 18 21 25
54 52 50 48 46 44 45 45 44 42 43 40 40 41 33 30 31 32 31 27 27 25 21 22 19 21 19 17 17 19 20 21 17 17 16 17 20 18 19 16 14 28 25 22 20 22 25
53 51 49 47 46 45 44 45 44 43 44 42 38 40 37 32 30 33 31 31 31 30 28 28 22 23 22 21 22 21 18 17 15 8 14 8 14 11 15 19 18 19 22 24 22 19 16
Wind_Speed
10 11 12 11 12 13 14 15 15 15 16 20 22 22 23 23 23 24 24 24 23 21 16 12 10 9 2 5 3 4 9 10 8 7 14 6 12 4 3 4 3 2 1 4 3 7 5
9 10 10 12 14 14 13 16 18 19 19 19 21 22 23 23 24 25 25 23 21 18 11 11 9 8 2 4 4 6 9 8 10 9 11 9 4 0 1 3 4 3 6 8 4 4 4
8 9 11 14 15 15 15 16 17 18 20 21 22 22 23 24 25 26 26 25 20 14 9 8 8 3 9 4 4 8 9 4 5 5 5 4 2 5 4 5 7 4 7 8 2 1 3
9 11 11 12 14 14 14 14 16 18 19 21 22 23 24 25 26 27 28 27 18 9 6 6 6 2 4 3 4 6 8 2 8 2 2 3 3 4 3 4 4 6 3 7 6 3 2
9 10 11 12 13 13 13 15 16 17 18 21 22 24 24 26 27 29 28 24 8 2 5 6 3 3 3 3 3 6 4 6 9 3 3 4 2 3 4 4 4 9 5 7 10 7 4
7 8 9 11 11 12 13 14 15 17 19 21 22 24 25 25 27 30 29 7 6 4 3 3 2 3 4 4 5 6 4 5 3 8 3 5 5 4 5 8 1 3 3 5 9 6 9
5 8 9 10 11 12 13 13 15 16 19 21 23 25 26 25 25 28 14 4 7 4 11 4 4 2 4 7 3 3 4 6 2 3 5 5 5 5 4 2 2 2 3 10 12 6 14
5 7 9 9 10 11 12 13 14 16 18 20 23 26 26 25 21 17 9 10 2 3 3 3 4 4 4 2 3 6 10 3 4 4 4 5 3 2 3 2 3 4 7 8 8 4 10
2 6 7 8 9 9 11 12 14 16 18 20 23 25 27 26 13 8 21 10 0 4 1 5 3 4 4 4 3 7 8 4 4 4 6 1 0 1 2 4 5 5 5 4 8 12 4
1 4 6 7 7 8 10 12 14 17 19 21 22 24 25 28 5 5 5 10 6 3 4 6 4 2 3 3 3 2 5 5 4 7 5 1 1 2 4 3 1 6 1 7 13 9 6
2 1 3 4 5 7 9 12 15 17 20 22 23 22 22 11 1 4 7 10 1 1 1 3 3 1 2 2 4 2 2 4 4 6 4 3 2 1 5 2 0 5 7 12 6 4 4
5 3 1 1 3 6 9 12 15 17 20 21 23 23 21 4 2 1 9 6 2 1 1 4 4 4 6 1 1 0 3 2 1 2 1 5 2 2 2 3 3 7 6 3 3 2 4
8 5 3 3 2 5 9 12 15 17 20 21 23 23 11 2 4 9 7 2 2 4 3 5 4 5 8 3 2 1 1 4 3 6 6 5 2 1 2 3 2 5 5 5 3 2 4
11 9 6 5 4 4 8 11 14 17 19 22 25 16 2 2 6 6 3 2 2 1 2 5 5 10 2 5 2 3 1 3 4 3 1 4 5 3 3 1 3 2 2 2 5 4 5
15 11 9 7 5 5 7 11 14 17 19 21 18 6 2 4 5 3 3 5 2 0 3 8 9 4 3 3 4 6 2 2 3 2 1 2 5 1 2 2 2 0 2 3 2 2 2
17 14 12 10 7 5 6 10 14 17 19 21 5 5 4 7 4 4 5 4 3 1 3 2 2 4 3 6 8 8 3 4 1 1 1 2 7 2 1 1 1 2 0 2 0 4 6
18 16 14 12 9 5 4 8 12 16 20 11 3 2 3 7 2 6 5 2 1 2 3 1 2 3 2 4 4 4 4 2 2 2 3 2 3 4 0 4 4 3 3 4 2 4 4
21 19 16 14 12 7 4 5 9 14 20 7 2 3 5 5 3 3 3 2 2 1 3 2 3 4 2 1 4 4 3 2 2 2 4 3 1 6 10 5 4 3 4 5 5 4 5
24 22 19 17 14 11 6 3 4 9 11 2 2 3 3 3 2 2 1 1 2 1 0 1 2 3 2 2 4 4 2 3 6 3 0 2 2 8 11 2 2 1 1 5 3 1 16
25 23 23 20 17 14 10 6 2 4 6 2 2 3 4 5 1 3 2 0 2 3 1 2 2 1 1 3 6 5 5 1 8 3 2 1 5 11 17 7 5 15 17 15 13 15 21
27 27 25 23 22 18 14 10 5 2 4 1 2 1 0 2 1 2 1 2 4 3 1 1 0 1 1 3 4 5 1 7 5 6 4 4 8 9 15 13 13 20 20 18 21 24 23
30 29 28 27 25 21 18 14 9 4 2 2 2 2 1 2 2 3 3 4 6 3 2 2 2 1 1 4 3 8 6 2 9 4 4 7 8 5 13 15 18 23 21 19 25 26 23
33 32 32 30 28 25 21 16 11 6 4 3 2 2 2 2 2 2 3 3 5 3 0 1 3 2 6 11 6 14 15 14 15 6 4 7 7 10 8 8 18 18 6 11 9 4 4
34 35 35 33 31 27 23 17 12 7 5 3 4 5 4 4 5 5 4 5 6 5 5 4 2 4 3 4 11 15 17 19 18 22 15 10 5 2 10 9 4 4 21 5 11 8 11
36 38 38 36 32 28 24 20 15 9 7 3 3 4 5 4 5 6 6 4 2 2 4 5 6 4 1 5 6 8 4 1 0 5 12 20 9 4 4 3 13 11 4 7 6 4 10
37 40 39 38 34 31 28 22 18 12 8 5 4 4 3 3 7 1 2 2 3 2 4 1 4 1 3 1 2 2 3 3 3 1 10 10 10 9 4 4 5 4 11 11 4 5 24
37 39 40 38 36 32 27 23 18 14 10 6 3 3 5 2 1 0 3 3 3 2 1 3 5 3 1 0 2 2 4 3 2 3 3 4 4 18 14 8 8 11 18 14 4 6 14
37 38 39 38 35 31 26 21 20 15 12 6 4 3 3 2 2 1 0 3 2 3 3 1 4 1 1 2 1 2 2 2 3 3 4 3 3 7 6 7 11 12 11 5 8 8 8
35 37 35 33 33 31 26 23 19 14 13 6 4 3 4 2 1 2 4 4 2 3 4 1 1 1 3 2 1 1 2 2 1 4 5 6 0 2 3 7 13 10 2 9 13 10 13
Wind_Direction
51 43 36 27 19 17 9 1 357 352 353 355 351 349 349 347 342 340 337 334 331 333 335 329 332 340 348 61 32 310 339 348 351 16 35 64 51 30 48 339 3 69 278 305 277 289 274
37 31 19 15 14 3 3 16 5 3 359 352 348 345 343 342 340 338 335 331 331 333 339 335 337 330 34 82 286 340 337 341 6 18 28 35 65 337 340 342 22 326 302 283 277 252 277
23 13 20 24 22 21 12 6 5 358 354 350 346 345 343 341 337 335 333 328 328 324 326 336 341 349 67 94 337 330 3 326 347 6 16 28 78 78 346 353 348 339 347 341 291 269 281
13 30 33 23 15 13 11 10 0 357 355 352 348 347 346 342 336 333 332 330 321 305 309 324 336 14 77 302 319 6 348 327 353 323 7 306 344 101 85 298 20 3 38 2 354 351 321
44 32 28 18 10 7 6 4 2 360 358 353 351 350 348 345 339 331 332 336 37 23 308 319 7 49 75 322 19 321 337 333 326 350 298 321 11 56 29 37 61 29 339 342 332 21 326
39 31 21 13 12 10 6 6 4 2 1 356 351 349 347 347 344 332 333 348 25 23 331 290 336 75 18 338 314 322 306 336 346 341 30 33 36 61 27 33 324 318 337 310 292 312 342
38 24 11 10 8 9 9 9 5 4 2 358 353 349 346 345 348 335 351 17 17 1 33 38 321 314 290 312 293 324 332 334 9 49 28 13 55 57 3 21 156 208 262 290 283 286 340
30 16 13 13 10 9 11 7 4 1 359 356 351 348 345 340 348 359 12 72 93 204 339 336 301 300 282 358 342 336 351 26 49 45 7 18 69 200 306 319 281 275 296 304 291 289 330
42 17 12 16 13 12 6 3 359 358 354 353 350 347 344 340 340 47 61 57 149 149 24 336 335 327 320 356 1 333 6 343 31 31 23 357 151 321 342 335 333 288 268 294 296 317 296
84 23 18 10 14 7 358 355 355 353 350 348 350 349 347 337 66 349 53 345 357 122 87 353 359 348 328 319 5 6 9 8 6 353 360 10 40 13 351 317 35 307 256 317 309 338 306
174 46 19 9 5 354 351 351 350 349 346 344 345 346 348 12 349 54 311 324 329 137 148 331 322 240 286 355 306 48 29 31 16 335 5 351 314 317 312 280 13 265 317 303 292 276 327
207 205 280 332 352 340 343 346 344 344 343 342 341 338 346 353 29 237 320 321 106 40 109 347 316 340 348 352 280 347 44 77 121 359 233 254 301 221 229 266 242 304 321 13 74 74 282
207 220 233 249 301 328 335 340 340 340 341 340 336 330 339 321 336 314 333 106 359 70 319 337 329 339 335 293 316 301 17 23 39 353 355 321 267 228 238 285 24 21 15 312 310 320 261
208 214 225 237 266 308 325 333 334 337 340 338 332 326 21 257 301 339 32 10 44 327 348 333 323 312 285 356 309 309 348 31 47 90 284 333 312 201 180 245 290 353 122 174 279 283 292
203 208 217 224 246 285 316 327 331 337 338 340 337 343 12 303 326 23 52 49 90 313 308 332 331 344 343 346 340 348 2 167 146 147 244 312 271 137 210 184 174 245 236 170 269 202 248
200 202 212 215 228 258 307 323 331 337 338 337 355 350 323 323 360 33 59 111 158 104 329 343 318 17 314 329 337 354 319 352 17 21 147 203 290 242 207 79 182 213 256 267 345 286 269
202 201 205 215 225 226 278 319 336 338 338 337 10 42 280 339 49 54 90 119 169 343 3 15 282 300 328 340 325 302 307 8 10 325 342 324 220 301 66 227 211 179 223 224 244 194 261
200 201 205 207 216 207 245 314 341 345 344 31 23 333 326 2 61 48 102 133 213 21 1 312 268 252 225 308 271 259 272 300 327 332 337 1 309 275 260 280 262 221 238 194 216 244 237
200 200 197 203 202 196 210 250 334 351 10 4 24 300 337 24 108 77 318 176 217 197 221 332 275 350 12 280 295 252 293 22 5 321 291 6 309 316 313 48 56 258 257 259 246 175 248
200 197 194 197 193 195 196 208 255 334 357 70 27 318 336 47 75 131 94 288 245 246 234 226 239 281 257 240 222 272 295 1 330 324 305 249 221 223 255 291 329 292 294 299 280 273 275
201 197 195 194 189 195 197 199 204 281 345 83 41 238 149 287 258 120 130 218 227 235 213 237 164 87 320 286 288 238 329 332 310 293 278 223 251 248 264 286 291 281 282 274 266 261 259
201 197 194 192 190 194 195 192 195 206 106 108 190 172 82 259 251 182 202 216 213 200 239 219 227 204 282 237 258 296 328 268 259 342 8 358 273 292 285 278 282 295 282 275 267 265 260
203 197 194 191 188 192 190 186 187 190 158 139 138 62 109 257 204 186 232 206 204 158 233 59 121 326 267 269 267 270 255 250 255 282 310 311 303 325 290 348 327 294 241 285 268 35 284
206 198 194 190 188 188 184 180 183 179 177 139 158 123 142 263 209 226 196 181 194 211 218 199 250 257 223 291 287 271 259 252 246 247 218 235 233 250 287 318 260 245 316 275 112 49 28
205 196 192 187 184 183 180 176 176 165 167 129 139 143 158 216 208 255 223 222 190 282 271 268 265 225 4 347 310 321 330 268 15 200 218 212 189 229 254 241 293 307 50 354 343 9 12
205 195 190 182 179 179 175 174 172 161 155 111 119 117 114 148 228 91 215 220 239 240 310 331 22 78 67 331 281 298 296 334 335 94 33 158 177 195 196 242 264 273 320 319 289 179 1
201 193 187 179 177 174 170 168 165 164 157 117 119 123 109 179 297 145 201 199 146 127 265 332 326 343 59 63 269 265 283 331 290 332 337 117 182 217 239 258 272 336 342 320 216 331 359
196 190 184 175 169 169 166 162 169 165 153 111 117 91 115 151 249 201 3 178 138 151 184 280 310 25 88 210 245 300 296 346 307 286 286 254 236 211 213 238 257 20 10 48 338 301 313
193 184 173 162 165 162 165 169 164 157 158 117 116 67 93 127 217 346 290 272 227 196 154 207 223 82 218 140 145 219 280 294 174 280 313 287 218 309 281 281 296 342 71 234 254 282 308